PWRBRD2 YSSY-YMML

Flight info

Callsign PWRBRD2
Flight time N/A
Altitude 43000
Route WOL H65 LEECE Q29 ML
Aircraft C750/M-SBDE3FGHRWXY/S

Departure

Time 2026-05-04 08:16
Airport Sydney Kingsford Smith International Airport (YSSY)

Arrival

Time N/A
Airport Melbourne Airport (YMML)
Time Latitude Longitude Altitude Speed Heading
2026-05-04 07:43 -33.93408 151.18852 27 ft 0 kts 189°
2026-05-04 08:02 -33.93474 151.18863 27 ft 7 kts 190°
2026-05-04 08:02 -33.93528 151.18853 27 ft 8 kts 188°
2026-05-04 08:02 -33.93581 151.18833 27 ft 8 kts 215°
2026-05-04 08:03 -33.93607 151.18780 27 ft 9 kts 252°
2026-05-04 08:03 -33.93624 151.18706 27 ft 11 kts 255°
2026-05-04 08:03 -33.93651 151.18583 27 ft 14 kts 252°
2026-05-04 08:03 -33.93679 151.18470 27 ft 14 kts 255°
2026-05-04 08:04 -33.93703 151.18364 27 ft 14 kts 255°
2026-05-04 08:04 -33.93729 151.18251 27 ft 16 kts 255°
2026-05-04 08:04 -33.93764 151.18104 27 ft 17 kts 254°
2026-05-04 08:04 -33.93794 151.17974 26 ft 17 kts 253°
2026-05-04 08:05 -33.93828 151.17839 22 ft 17 kts 253°
2026-05-04 08:05 -33.93911 151.17782 18 ft 15 kts 169°
2026-05-04 08:05 -33.94016 151.17809 20 ft 21 kts 168°
2026-05-04 08:05 -33.94167 151.17848 21 ft 19 kts 168°
2026-05-04 08:06 -33.94293 151.17882 21 ft 18 kts 168°
2026-05-04 08:06 -33.94415 151.17912 22 ft 17 kts 171°
2026-05-04 08:06 -33.94525 151.17885 21 ft 16 kts 174°
2026-05-04 08:06 -33.94632 151.17912 23 ft 19 kts 167°
2026-05-04 08:08 -33.95056 151.18372 22 ft 8 kts 78°
2026-05-04 08:08 -33.95048 151.18476 23 ft 13 kts 111°
2026-05-04 08:10 -33.96043 151.18909 25 ft 21 kts 166°
2026-05-04 08:11 -33.96229 151.18959 23 ft 28 kts 166°
2026-05-04 08:11 -33.96616 151.19059 16 ft 29 kts 167°
2026-05-04 08:11 -33.96806 151.19067 15 ft 27 kts 178°
2026-05-04 08:12 -33.96984 151.19111 17 ft 25 kts 168°
2026-05-04 08:12 -33.97121 151.19162 18 ft 13 kts 133°
2026-05-04 08:12 -33.97123 151.19261 17 ft 12 kts 78°
2026-05-04 08:12 -33.97118 151.19291 18 ft 8 kts 77°
2026-05-04 08:13 -33.97038 151.19370 18 ft 16 kts 359°
2026-05-04 08:13 -33.97004 151.19360 16 ft 0 kts 347°
2026-05-04 08:14 -33.96990 151.19357 19 ft 15 kts 347°
2026-05-04 08:14 -33.96540 151.19242 19 ft 119 kts 349°
2026-05-04 08:16 -33.92430 151.22539 1737 ft 192 kts 90°
2026-05-04 08:16 -33.92542 151.23233 1813 ft 195 kts 99°
2026-05-04 08:16 -33.92844 151.24174 1851 ft 218 kts 111°
2026-05-04 08:17 -33.93929 151.25925 1987 ft 197 kts 124°
2026-05-04 08:17 -33.94413 151.27687 2060 ft 232 kts 81°
2026-05-04 08:17 -33.94009 151.29753 2652 ft 258 kts 71°
2026-05-04 08:17 -33.93829 151.32266 3265 ft 293 kts 90°
2026-05-04 08:19 -33.94493 151.48172 6012 ft 306 kts 129°
2026-05-04 08:19 -33.96308 151.49801 7378 ft 302 kts 155°
2026-05-04 08:20 -33.98159 151.50761 8373 ft 305 kts 160°
2026-05-04 08:20 -34.00629 151.51990 9500 ft 313 kts 159°
2026-05-04 08:20 -34.03613 151.53146 10396 ft 331 kts 179°
2026-05-04 08:20 -34.07201 151.51665 10510 ft 357 kts 226°